Sultan Atasoy — TCYG9 — position and weather

sailwx.info

Track history (hours):
 
Tides and Currents Weather Stations Pressure Air Temp Water Temp Dewpoint Dewpoint Depression Visibility Wind Speed Wind Dir Waves Ship Positions

Sultan Atasoy

Last reported at 2014-Oct-21 22:03 UTC. Time now 2014-Oct-23 02:20 UTC.
Position N 40°52' E 028°33'.

Length 109 m; draft 7.3 m.

Type: Ship. MMSI: 271040963.

Date/timePositionNaut miles runAvg speedWind from/ knotsBaromVisibWave heightAir tempDewpointWater temp
2014-Oct-21 22:03N 40°52' E 028°33'510.1
2014-Oct-21 21:33N 40°53' E 028°40'1010.3
2014-Oct-21 20:33N 40°52' E 028°53'1110.8
2014-Oct-21 19:33N 40°50' E 029°07'5 5.0
2014-Oct-21 18:33N 40°53' E 029°12'0 0.0
2014-Oct-21 17:32N 40°53' E 029°12'0 0.0
2014-Oct-21 16:32N 40°53' E 029°12'0 0.0
2014-Oct-21 15:32N 40°53' E 029°12'0 0.0
2014-Oct-21 14:32N 40°53' E 029°12'0 0.0
2014-Oct-21 13:32N 40°53' E 029°12'0 0.0
2014-Oct-21 12:32N 40°53' E 029°12'0 0.0
2014-Oct-21 11:32N 40°53' E 029°12'0 0.0
2014-Oct-21 10:32N 40°53' E 029°12'0 0.0
2014-Oct-21 09:32N 40°53' E 029°12'0 0.0
2014-Oct-21 08:14N 40°53' E 029°12'0 0.0
2014-Oct-21 07:20N 40°53' E 029°12'0 0.0
2014-Oct-21 06:32N 40°53' E 029°12'0 0.0
2014-Oct-21 05:32N 40°53' E 029°12'0 0.0
2014-Oct-21 04:26N 40°53' E 029°12'0 0.0
2014-Oct-21 03:32N 40°53' E 029°12'0 0.0
2014-Oct-21 02:26N 40°53' E 029°12'0 0.0
2014-Oct-21 01:32N 40°53' E 029°12'0 0.0
2014-Oct-21 00:26N 40°53' E 029°12'0 0.0
2014-Oct-20 23:32N 40°53' E 029°12'0 0.0
2014-Oct-20 22:32N 40°53' E 029°12'0 0.0
2014-Oct-20 21:32N 40°53' E 029°12'0 0.0
2014-Oct-20 20:32N 40°53' E 029°12'0 0.0
2014-Oct-20 19:32N 40°53' E 029°12'0 0.0
2014-Oct-20 18:26N 40°53' E 029°12'0 0.0
2014-Oct-20 17:32N 40°53' E 029°12'0 0.0
2014-Oct-20 16:20N 40°53' E 029°12'0 0.0
2014-Oct-20 15:32N 40°53' E 029°12'0 0.0
2014-Oct-20 14:29N 40°53' E 029°12'1 0.7
2014-Oct-20 13:29N 40°52' E 029°12'0 0.0
2014-Oct-20 12:17N 40°52' E 029°12'0 0.0
2014-Oct-20 11:32N 40°52' E 029°12'0 0.0
2014-Oct-20 10:32N 40°52' E 029°12'0 0.0
2014-Oct-20 09:32N 40°52' E 029°12'3 3.0
2014-Oct-20 08:33N 40°50' E 029°09'1311.6
2014-Oct-20 07:28N 40°49' E 028°52'  
2014-Oct-17 12:30N 39°41' E 026°04'  
Track history (hours):
 
Tides and Currents Weather Stations Pressure Air Temp Water Temp Dewpoint Dewpoint Depression Visibility Wind Speed Wind Dir Waves Ship Positions

Sultan Atasoy

Last reported at 2014-Oct-21 22:03 UTC. Time now 2014-Oct-23 02:20 UTC.
Position N 40°52' E 028°33'.

Length 109 m; draft 7.3 m.

Type: Ship. MMSI: 271040963.

Date/timePositionNaut miles runAvg speedWind from/ knotsBaromVisibWave heightAir tempDewpointWater temp
2014-Oct-21 22:03N 40°52' E 028°33'510.1
2014-Oct-21 21:33N 40°53' E 028°40'1010.3
2014-Oct-21 20:33N 40°52' E 028°53'1110.8
2014-Oct-21 19:33N 40°50' E 029°07'5 5.0
2014-Oct-21 18:33N 40°53' E 029°12'0 0.0
2014-Oct-21 17:32N 40°53' E 029°12'0 0.0
2014-Oct-21 16:32N 40°53' E 029°12'0 0.0
2014-Oct-21 15:32N 40°53' E 029°12'0 0.0
2014-Oct-21 14:32N 40°53' E 029°12'0 0.0
2014-Oct-21 13:32N 40°53' E 029°12'0 0.0
2014-Oct-21 12:32N 40°53' E 029°12'0 0.0
2014-Oct-21 11:32N 40°53' E 029°12'0 0.0
2014-Oct-21 10:32N 40°53' E 029°12'0 0.0
2014-Oct-21 09:32N 40°53' E 029°12'0 0.0
2014-Oct-21 08:14N 40°53' E 029°12'0 0.0
2014-Oct-21 07:20N 40°53' E 029°12'0 0.0
2014-Oct-21 06:32N 40°53' E 029°12'0 0.0
2014-Oct-21 05:32N 40°53' E 029°12'0 0.0
2014-Oct-21 04:26N 40°53' E 029°12'0 0.0
2014-Oct-21 03:32N 40°53' E 029°12'0 0.0
2014-Oct-21 02:26N 40°53' E 029°12'0 0.0
2014-Oct-21 01:32N 40°53' E 029°12'0 0.0
2014-Oct-21 00:26N 40°53' E 029°12'0 0.0
2014-Oct-20 23:32N 40°53' E 029°12'0 0.0
2014-Oct-20 22:32N 40°53' E 029°12'0 0.0
2014-Oct-20 21:32N 40°53' E 029°12'0 0.0
2014-Oct-20 20:32N 40°53' E 029°12'0 0.0
2014-Oct-20 19:32N 40°53' E 029°12'0 0.0
2014-Oct-20 18:26N 40°53' E 029°12'0 0.0
2014-Oct-20 17:32N 40°53' E 029°12'0 0.0
2014-Oct-20 16:20N 40°53' E 029°12'0 0.0
2014-Oct-20 15:32N 40°53' E 029°12'0 0.0
2014-Oct-20 14:29N 40°53' E 029°12'1 0.7
2014-Oct-20 13:29N 40°52' E 029°12'0 0.0
2014-Oct-20 12:17N 40°52' E 029°12'0 0.0
2014-Oct-20 11:32N 40°52' E 029°12'0 0.0
2014-Oct-20 10:32N 40°52' E 029°12'0 0.0
2014-Oct-20 09:32N 40°52' E 029°12'3 3.0
2014-Oct-20 08:33N 40°50' E 029°09'1311.6
2014-Oct-20 07:28N 40°49' E 028°52'  
2014-Oct-17 12:30N 39°41' E 026°04'  

Dump ship's entire track history